Home > Weather > Calgary > Past weeks

Flag for Canada Past Weather in Calgary, Alberta, Canada — Yesterday and Last 2 Weeks

Now
63 °F

Partly sunny.


Feels Like: 63 °F
Forecast: 40 / 64 °F
Wind: 10 mph from South

Location: Calgary International

Current Time: May 29, 2016 at 3:20:18 PM

Latest Report: May 29, 2016 at 2:00 PM


Visibility: 40 mi

Pressure: 29.86 "Hg (26.35 "Hg at 1063m altitude)

Humidity: 34%

Dew Point: 34 °F

Location of CalgaryLocation

Past Weather in Calgary — Graph

°F

Calgary Temperature Yesterday

Maximum temperature yesterday: 61 °F (at 7:00 PM)
Minimum temperature yesterday: 37 °F (at 5:00 AM)
Average temperature yesterday: 51 °F

High & Low Weather Summary for the Past Weeks

 TemperatureHumidityPressure
High75 °F (May 18, 3:00 PM)94% (May 19, 3:00 PM)30.33 "Hg (May 19, 3:00 PM)
Low34 °F (May 15, 6:00 AM)22% (May 15, 6:00 PM)29.55 "Hg (May 22, 2:00 PM)
Average51 °F63%29.90 "Hg
* Reported May 14 2:00 PM — May 29 2:00 PM, Calgary, Weather by CustomWeather, © 2016

Note: Actual official high and low records may vary slightly from our data, if they occured in-between our weather recording intervals... More about our weather records

Advertising

Calgary Weather History for the Previous 24 Hours

Scroll right to see more
 ConditionsComfort  
Time TempWeatherWind HumidityBarometerVisibility
2:00 PM
Sun, May 29
63 °FPartly sunny.10 mph34%29.86 "Hg40 mi
1:00 PM64 °FPartly sunny.5 mph30%29.86 "Hg30 mi
12:00 PM63 °FBroken clouds.7 mph27%29.87 "Hg30 mi
11:00 AM61 °FPartly sunny.6 mph31%29.88 "Hg30 mi
10:00 AM59 °FScattered clouds.5 mph34%29.89 "Hg30 mi
9:00 AM57 °FPassing clouds.5 mph36%29.89 "Hg20 mi
8:00 AM54 °FScattered clouds.7 mph47%29.89 "Hg30 mi
7:00 AM50 °FBroken clouds.2 mph50%29.90 "Hg40 mi
6:00 AM48 °FPartly cloudy.7 mph50%29.91 "Hg40 mi
5:00 AM50 °FPartly cloudy.6 mph47%29.90 "Hg15 mi
4:00 AM50 °FPartly cloudy.6 mph47%29.90 "Hg15 mi
3:00 AM50 °FPassing clouds.7 mph47%29.91 "Hg15 mi
2:00 AM50 °FPassing clouds.3 mph47%29.92 "Hg15 mi
1:00 AM50 °FPassing clouds.5 mph47%29.91 "Hg15 mi
12:00 AM52 °FPassing clouds.5 mph41%29.90 "Hg15 mi
11:00 PM
Sat, May 28
54 °FPassing clouds.8 mph41%29.91 "Hg15 mi
10:00 PM55 °FScattered clouds.5 mph36%29.91 "Hg40 mi
9:00 PM59 °FPassing clouds.10 mph31%29.90 "Hg20 mi
8:00 PM61 °FScattered clouds.9 mph27%29.90 "Hg20 mi
7:00 PM61 °FScattered clouds.5 mph29%29.90 "Hg20 mi
6:00 PM59 °FScattered clouds.5 mph31%29.90 "Hg30 mi
5:00 PM59 °FBroken clouds.No wind36%29.92 "Hg30 mi
4:00 PM59 °FScattered clouds.2 mph34%29.92 "Hg30 mi
3:00 PM55 °FScattered clouds.3 mph41%29.94 "Hg30 mi
Weather by CustomWeather, © 2016

See weather overviewHow to use our weather pages